Total_Precipitation_Accumulation
0.13 0.18 0.23 0.26 0.23 0.19 0.15 0.14 0.22 0.36 0.54 0.70 0.85 0.90 0.94 0.93 0.87 0.84 0.82 0.81 0.75 0.77 0.89 1.01 1.17 1.29 1.42 1.48 1.67 1.80 2.07 2.21 2.24 2.35 2.36 2.36 2.47 2.49 2.43 2.48 2.51 2.68 2.73 2.77
0.09 0.11 0.16 0.19 0.21 0.16 0.14 0.14 0.18 0.33 0.63 0.72 0.83 0.92 0.95 0.90 0.86 0.85 0.85 0.85 0.91 0.94 1.01 1.13 1.18 1.28 1.39 1.49 1.72 1.99 2.24 2.50 2.55 2.60 2.58 2.64 2.77 2.82 2.75 2.76 2.89 2.91 2.79 2.72
0.14 0.15 0.16 0.21 0.21 0.19 0.20 0.19 0.24 0.40 0.59 0.69 0.80 0.91 1.06 1.02 0.94 0.93 0.98 1.00 1.07 1.20 1.19 1.19 1.25 1.37 1.54 1.68 1.90 2.10 2.29 2.52 2.70 2.79 2.84 2.92 2.99 3.00 2.94 3.05 3.24 3.22 3.05 2.85
0.19 0.25 0.30 0.26 0.25 0.25 0.30 0.32 0.37 0.51 0.59 0.80 1.00 1.10 1.31 1.35 1.16 1.09 1.02 1.03 1.13 1.30 1.34 1.32 1.37 1.49 1.74 1.94 2.22 2.45 2.56 2.64 2.75 2.85 2.92 2.98 3.05 2.93 2.96 3.12 3.18 3.19 3.07 2.91
0.29 0.34 0.34 0.36 0.40 0.42 0.49 0.63 0.63 0.75 0.87 1.04 1.17 1.19 1.34 1.24 1.08 1.05 1.08 1.17 1.27 1.40 1.47 1.55 1.61 1.71 1.84 2.00 2.26 2.53 2.73 2.72 2.69 2.82 2.94 2.98 3.00 2.99 3.05 3.10 2.99 2.85 2.74 2.71
0.42 0.48 0.52 0.56 0.58 0.55 0.65 1.18 1.19 1.19 1.17 1.19 1.28 1.54 1.52 1.25 1.11 1.13 1.19 1.25 1.36 1.45 1.48 1.57 1.66 1.70 1.81 2.02 2.28 2.52 2.72 2.79 2.77 2.88 2.95 2.96 3.04 3.10 3.04 2.99 2.89 2.79 2.62 2.59
0.60 0.69 0.68 0.61 0.58 0.61 1.06 1.48 1.35 1.34 1.37 1.34 1.51 1.59 1.49 1.36 1.34 1.29 1.32 1.42 1.45 1.51 1.50 1.49 1.61 1.72 1.86 1.99 2.15 2.37 2.60 2.80 2.99 3.11 3.11 3.09 3.13 3.03 2.95 2.87 2.89 2.84 2.69 2.57
0.83 1.08 1.20 0.81 0.67 0.99 1.38 1.23 1.37 1.52 1.47 1.46 1.46 1.40 1.39 1.41 1.44 1.41 1.39 1.45 1.46 1.49 1.58 1.65 1.77 1.85 1.95 1.92 2.04 2.27 2.38 2.57 2.72 2.87 2.97 2.96 3.01 2.96 3.00 2.93 2.81 2.69 2.56 2.41
1.18 1.35 1.20 0.99 0.99 1.14 1.22 1.33 1.39 1.56 1.65 1.57 1.61 1.55 1.41 1.46 1.43 1.56 1.67 1.69 1.64 1.54 1.61 1.75 1.87 1.95 2.03 2.01 1.98 2.05 2.18 2.36 2.58 2.74 2.98 3.09 3.12 3.06 2.96 2.85 2.65 2.45 2.32 2.18
1.45 1.50 1.36 1.27 1.20 1.20 1.24 1.34 1.42 1.55 1.66 1.73 1.68 1.56 1.49 1.46 1.37 1.35 1.44 1.49 1.63 1.60 1.65 1.97 1.96 1.93 1.98 2.03 2.03 2.08 2.18 2.27 2.42 2.55 2.71 2.95 3.03 2.95 2.78 2.52 2.36 2.29 2.22 2.19
1.68 1.75 1.50 1.39 1.34 1.43 1.42 1.40 1.40 1.50 1.59 1.64 1.53 1.47 1.50 1.56 1.42 1.35 1.40 1.38 1.38 1.46 1.53 1.64 1.73 1.78 1.80 1.88 1.97 1.99 2.02 2.04 2.07 2.26 2.44 2.61 2.64 2.54 2.38 2.25 2.30 2.33 2.27 2.23
1.97 1.78 1.75 1.76 1.63 1.60 1.69 1.67 1.65 1.69 1.83 1.80 1.57 1.52 1.47 1.42 1.36 1.26 1.22 1.33 1.37 1.34 1.37 1.46 1.53 1.64 1.74 1.89 2.03 2.07 2.03 2.00 1.93 1.89 1.99 2.26 2.54 2.58 2.41 2.17 2.18 2.12 2.04 1.99
1.74 1.70 1.78 1.82 1.84 1.86 1.94 1.89 1.86 1.89 1.93 1.87 1.69 1.59 1.47 1.41 1.29 1.23 1.18 1.26 1.46 1.51 1.49 1.58 1.56 1.51 1.60 1.82 2.00 2.13 2.05 2.01 1.91 1.80 1.84 2.01 2.33 2.60 2.64 2.39 2.14 1.99 1.78 1.63
1.63 1.80 2.02 2.02 2.07 2.05 1.99 1.99 2.01 2.06 1.99 1.94 1.80 1.61 1.49 1.53 1.48 1.35 1.29 1.34 1.51 1.67 1.69 1.70 1.68 1.67 1.69 1.79 1.90 1.96 1.97 1.97 1.83 1.72 1.78 1.90 2.13 2.43 2.62 2.57 2.33 2.02 1.72 1.54
1.84 1.85 1.90 1.85 1.98 2.02 2.00 2.03 2.00 2.11 2.10 2.03 1.87 1.71 1.52 1.45 1.47 1.42 1.41 1.50 1.71 1.79 1.74 1.69 1.71 1.70 1.61 1.57 1.70 1.84 1.92 1.94 1.90 1.81 1.79 1.79 1.97 2.26 2.47 2.52 2.40 2.18 1.85 1.58
2.07 1.93 1.76 1.78 1.96 2.01 2.00 2.04 1.94 2.01 2.10 2.04 1.88 1.80 1.75 1.68 1.62 1.52 1.51 1.62 1.91 2.01 1.87 1.79 1.80 1.75 1.62 1.58 1.60 1.66 1.72 1.77 1.68 1.64 1.67 1.61 1.65 1.83 2.13 2.32 2.28 2.21 1.96 1.53
2.03 2.12 2.04 2.00 2.04 2.06 2.04 1.96 1.89 1.94 2.03 2.09 2.04 1.96 1.98 1.98 1.96 1.91 1.87 1.87 1.99 2.05 1.87 1.76 1.74 1.67 1.54 1.54 1.58 1.52 1.50 1.55 1.52 1.39 1.48 1.55 1.61 1.76 2.02 2.23 2.19 2.11 1.92 1.63
1.84 1.83 1.85 1.96 2.08 2.11 2.00 1.86 1.81 1.81 1.87 1.98 2.04 2.00 2.04 2.13 2.24 2.34 2.27 2.10 1.98 1.86 1.72 1.62 1.60 1.54 1.44 1.39 1.35 1.32 1.30 1.32 1.32 1.26 1.35 1.44 1.53 1.75 2.00 2.13 2.06 1.96 1.84 1.66
1.73 1.73 1.73 1.74 1.84 1.88 1.77 1.76 1.71 1.61 1.55 1.65 1.78 1.87 1.92 1.99 2.10 2.31 2.24 2.19 2.15 1.99 1.70 1.51 1.56 1.43 1.36 1.34 1.36 1.29 1.20 1.21 1.22 1.21 1.26 1.37 1.51 1.67 1.81 1.85 1.83 1.82 1.67 1.52
1.78 1.76 1.72 1.77 1.82 1.77 1.66 1.58 1.63 1.56 1.53 1.57 1.55 1.58 1.68 1.77 1.87 2.10 2.16 2.19 2.12 1.90 1.63 1.49 1.33 1.25 1.18 1.14 1.19 1.22 1.27 1.32 1.35 1.38 1.42 1.48 1.57 1.66 1.70 1.67 1.60 1.57 1.53 1.52
1.68 1.66 1.61 1.73 1.75 1.62 1.50 1.41 1.48 1.51 1.50 1.46 1.40 1.41 1.45 1.52 1.64 1.88 2.19 2.34 2.02 1.64 1.43 1.39 1.23 1.10 1.05 1.08 1.10 1.09 1.19 1.31 1.36 1.43 1.48 1.53 1.60 1.64 1.63 1.58 1.48 1.43 1.41 1.43
1.60 1.56 1.54 1.60 1.65 1.57 1.33 1.28 1.30 1.32 1.32 1.24 1.19 1.26 1.31 1.43 1.53 1.67 1.86 2.12 2.04 1.85 1.44 1.22 1.12 1.06 1.02 1.03 0.97 1.01 1.08 1.17 1.30 1.33 1.37 1.46 1.56 1.62 1.58 1.52 1.45 1.39 1.39 1.39
1.73 1.57 1.55 1.59 1.67 1.56 1.34 1.25 1.26 1.34 1.30 1.23 1.22 1.27 1.30 1.42 1.50 1.72 1.87 1.77 1.75 1.82 1.47 1.28 1.31 1.20 1.03 0.94 0.93 0.96 1.02 1.11 1.25 1.34 1.37 1.43 1.47 1.50 1.49 1.43 1.40 1.37 1.38 1.33
1.86 1.69 1.60 1.56 1.60 1.53 1.48 1.34 1.24 1.35 1.32 1.21 1.17 1.17 1.21 1.34 1.35 1.39 1.57 1.70 1.72 1.68 1.39 1.31 1.30 1.16 1.01 0.93 1.00 1.06 1.17 1.27 1.29 1.27 1.23 1.29 1.35 1.32 1.32 1.26 1.22 1.25 1.26 1.24
1.89 1.77 1.66 1.57 1.58 1.49 1.39 1.32 1.29 1.34 1.26 1.21 1.22 1.24 1.22 1.25 1.34 1.38 1.40 1.44 1.61 1.60 1.38 1.34 1.23 1.14 1.02 0.96 1.07 1.22 1.29 1.22 1.18 1.16 1.16 1.20 1.29 1.29 1.23 1.23 1.26 1.22 1.19 1.18
1.85 1.82 1.75 1.60 1.48 1.39 1.34 1.32 1.38 1.40 1.34 1.34 1.36 1.31 1.27 1.28 1.35 1.37 1.38 1.37 1.39 1.50 1.39 1.23 1.07 1.05 1.05 1.07 1.09 1.16 1.15 1.11 1.10 1.11 1.11 1.13 1.19 1.23 1.18 1.20 1.20 1.17 1.20 1.22
1.80 1.79 1.74 1.61 1.50 1.39 1.38 1.43 1.45 1.48 1.44 1.44 1.47 1.43 1.45 1.47 1.50 1.52 1.46 1.39 1.32 1.28 1.21 1.09 0.99 0.94 0.94 0.98 0.97 0.98 1.01 1.03 1.01 1.01 1.05 1.09 1.15 1.16 1.09 1.08 1.09 1.11 1.15 1.14